Regional Weather Roundup
Issued by NWS Goodland, KS

Home | Current Version | Previous Version | Graphics & Text | Print | Product List | Glossary Off
Versions: 1 2 3 4 5 6 7 8 9 10 11 12 13 14 15 16 17 18 19 20 21 22 23 24 25 26 27 28 29 30 31 32 33 34 35 36 37 38 39 40 41 42 43 44 45 46 47 48 49 50

000
ASUS43 KGLD 300308
RWRGLD

GOODLAND FORECAST AREA HOURLY WEATHER ROUNDUP
NATIONAL WEATHER SERVICE GOODLAND KS
900 PM MDT TUE JUL 29 2014

...OFFICIAL OBSERVATIONS...

CITY           SKY/WX    TMP DP  RH WIND       PRES   REMARKS
GOODLAND KS    CLOUDY    73  63  70 S10       30.12R
HILL CITY KS   CLOUDY    77  56  48 E10       30.11R
IMPERIAL NEB   CLOUDY    74  58  57 E16       30.14R
MCCOOK NEB     CLOUDY    73  60  63 E15       30.13R
AKRON CO       RAIN      60  59  96 E13       30.25R FOG
BURLINGTON CO  CLOUDY    66  64  93 S8        30.13S
LIMON CO       LGT RAIN  60  59  96 SE7       30.24R
$$

...UNOFFICIAL OBSERVATIONS...

CITY           SKY/WX    TMP DP  RH WIND       PRES   REMARKS
COLBY KS       LGT RAIN  70  66  88 SE5       30.13S
GOVE KS          N/A     76  32  20 MISG        N/A
LENORA KS        N/A     75  32  20 MISG        N/A
NORTON KS      CLEAR     73  54  49 NE10      30.12R
OBERLIN KS     CLOUDY    77  54  44 E15G21    30.12R
TRIBUNE KS     CLOUDY    66 N/A N/A S9        30.15
WAKEENEY KS      N/A     76  60  58 MISG        N/A
TRENTON NEB      N/A     73  32  22 NE14        N/A
KIT CARSON CO    N/A     63  60  88 N5G12       N/A
WRAY CO          N/A     66  66 100 W10       30.20  THUNDER
YUMA CO          N/A     61  60  97 E7          N/A
$$


USA.gov is the U.S. government's official web portal to all federal, state and local government web resources and services.